Theta_e
338 338 341 343 344 342 342 343 344 344 345 344 345 346 346 347 348 350 350 349 347 346 344 344 343 341 340 340 341 341 339 338 338 334 333 332 329 329 332 331 329 327 326 326 327 322 319 315 313 315 316 318 317 315 314 313 312 313 315 314 313 313 314
342 341 342 343 342 343 343 344 344 343 344 344 345 346 347 346 347 349 349 348 346 346 344 345 345 343 340 340 340 338 338 338 337 336 333 331 332 329 328 327 325 323 323 324 325 325 319 318 315 312 312 315 317 316 316 316 314 314 315 314 313 314 315
341 341 343 342 342 343 342 342 343 342 342 343 345 346 347 346 349 349 348 347 347 347 344 345 345 343 342 341 340 339 339 338 338 336 334 332 333 332 330 327 323 323 323 323 323 323 322 321 316 312 313 313 311 313 317 316 315 314 314 315 315 313 314
342 341 341 342 341 341 340 341 341 341 342 342 343 345 346 346 350 350 349 348 347 345 343 344 344 342 341 340 340 340 339 338 336 336 335 335 333 332 331 328 326 325 324 323 323 323 322 320 317 316 315 313 313 311 315 316 314 314 314 315 314 313 314
343 341 341 341 340 339 340 340 341 342 342 342 343 343 345 345 348 349 349 347 346 345 344 345 345 342 342 341 340 339 338 339 338 336 335 334 333 332 333 330 329 329 327 326 326 326 323 321 320 318 316 315 313 312 317 317 315 313 313 314 313 313 314
343 342 342 343 341 339 340 340 341 340 341 340 341 341 343 345 345 349 348 347 346 346 345 344 344 342 342 341 340 338 337 336 335 336 333 335 334 331 331 333 330 329 327 328 328 326 326 325 323 318 317 318 313 312 314 314 312 313 314 312 312 312 312
343 342 343 342 342 341 341 341 341 340 340 340 341 342 342 344 344 347 349 348 346 342 344 343 341 340 340 338 338 337 336 336 336 337 335 335 335 334 333 331 330 329 328 329 329 327 326 325 321 319 319 317 316 313 312 311 311 309 310 312 313 312 312
343 343 343 343 343 343 343 342 342 342 341 341 341 342 343 344 345 347 348 348 346 345 343 342 340 339 340 338 338 336 335 336 337 336 334 334 332 331 332 330 330 329 329 327 329 328 327 327 324 322 319 315 314 314 311 310 310 309 310 311 312 311 312
344 344 342 343 344 345 344 343 343 344 343 342 343 343 344 344 344 347 347 346 346 345 342 341 340 338 340 337 336 336 335 336 336 336 334 333 332 332 332 332 330 328 328 328 328 328 328 327 325 323 322 319 313 310 311 309 309 308 311 309 311 311 311
344 343 342 344 345 346 345 344 343 343 344 343 342 343 343 344 346 347 346 345 343 343 341 340 339 339 338 336 334 335 335 334 333 332 332 332 332 331 331 332 330 328 327 330 329 329 329 327 325 323 322 319 317 310 309 307 308 308 309 310 308 309 311
343 343 343 343 345 345 344 343 344 343 342 343 343 344 345 345 347 344 345 343 342 340 340 338 337 337 335 333 335 334 334 334 331 332 332 330 330 331 330 330 330 327 329 329 328 328 327 326 323 321 320 319 317 313 311 309 310 312 310 311 311 309 309
343 343 344 345 345 343 342 342 343 343 344 344 342 343 344 345 345 344 344 343 341 339 339 336 335 335 334 332 333 332 333 332 330 329 331 330 329 329 328 327 328 327 328 327 326 325 324 323 320 319 318 318 317 317 315 312 308 313 315 311 311 312 310
343 343 344 345 345 343 342 342 342 343 343 343 343 343 343 343 343 342 342 341 340 338 335 334 334 334 333 333 331 331 331 330 328 328 328 328 327 326 326 324 325 324 324 322 321 320 319 319 319 317 317 317 316 318 316 312 310 311 314 314 312 312 310
344 343 344 345 344 343 343 343 343 343 343 343 342 342 343 342 342 341 340 340 339 337 334 333 334 333 332 332 331 331 330 328 326 326 326 325 324 324 323 321 321 321 321 319 318 318 316 316 317 316 316 315 314 317 316 313 310 310 314 317 314 312 311
343 343 344 345 344 342 343 343 343 342 342 343 341 341 342 342 341 340 339 339 338 336 334 334 333 333 332 332 331 329 329 326 325 325 324 322 322 321 322 319 318 319 318 316 317 315 315 313 311 310 311 312 310 314 316 311 309 308 312 314 312 312 310
343 343 344 344 344 343 343 343 342 342 341 341 342 342 342 342 340 340 338 338 337 335 334 333 334 333 332 331 329 328 327 325 324 323 322 320 319 320 319 319 318 318 317 317 316 315 314 312 311 310 312 310 311 313 313 312 312 309 311 311 312 310 310
343 342 343 343 343 344 343 342 342 342 341 341 340 343 342 341 340 339 337 337 336 334 334 333 332 332 331 330 328 326 325 324 323 322 320 319 318 318 318 318 318 318 317 315 314 313 312 312 311 310 309 311 312 311 313 313 313 312 311 309 311 308 310
342 342 342 342 342 343 343 342 341 340 341 341 341 342 341 340 338 338 337 336 335 334 333 332 331 330 330 329 328 326 324 323 322 320 320 319 319 318 317 318 317 315 314 314 313 311 311 311 309 310 309 308 308 311 312 311 312 311 311 308 310 310 311
341 342 342 342 342 342 342 341 340 341 341 340 341 341 339 338 337 337 336 336 335 334 333 332 331 329 328 328 327 325 323 321 320 319 319 319 318 318 317 317 316 315 314 314 313 311 312 311 310 310 309 308 308 310 311 312 313 311 308 307 310 308 310
341 341 342 342 342 341 340 340 340 340 341 341 340 339 338 338 337 337 336 336 335 334 332 331 330 329 327 326 325 322 321 320 319 319 319 318 317 317 317 316 316 315 313 314 312 312 312 312 311 310 310 310 310 311 311 308 306 307 309 308 309 309 308
341 341 342 342 341 341 340 340 340 341 341 341 340 339 338 337 337 337 337 337 335 333 332 330 329 328 327 325 323 321 320 319 318 318 318 317 317 317 316 315 315 314 313 313 314 313 313 312 312 311 311 312 312 309 306 306 307 307 307 307 305 305 305
341 341 340 340 340 340 340 340 340 340 340 341 340 339 338 337 335 335 336 336 333 332 330 330 329 328 326 324 322 320 319 318 317 317 317 316 316 315 315 315 314 313 314 315 313 311 312 312 312 310 313 312 309 307 306 308 308 305 306 306 305 306 304
340 340 339 338 338 340 339 339 339 339 339 340 339 339 337 336 334 334 333 332 332 331 330 330 322 314 315 322 322 319 319 318 317 316 315 314 315 314 314 315 315 314 314 312 309 305 303 305 308 313 313 310 307 306 306 307 306 305 306 304 303 303 302
339 338 338 337 338 338 338 338 338 338 338 338 338 337 336 334 334 333 331 330 329 329 328 325 306 303 303 307 319 320 318 318 317 316 315 315 314 314 314 314 315 313 313 311 310 300 300 300 298 300 301 304 308 311 309 307 307 307 304 303 303 303 301
337 336 337 336 336 337 338 337 337 337 337 337 337 336 335 333 333 332 331 330 328 327 328 309 300 300 301 302 309 320 319 318 317 316 315 315 314 314 314 313 314 313 311 310 310 308 304 298 295 295 296 297 297 296 296 307 308 306 305 303 303 303 302
336 335 335 336 336 336 336 336 336 336 336 337 336 334 333 333 332 331 330 328 327 326 328 300 299 299 299 300 301 312 319 319 317 316 316 315 314 314 313 313 312 313 310 312 310 310 309 306 299 296 297 296 295 294 294 293 294 305 310 305 303 302 301
335 335 336 335 335 335 335 335 336 337 336 336 334 333 333 331 330 329 329 328 327 326 326 301 298 298 298 298 298 304 320 318 317 316 316 315 315 314 313 312 312 313 313 312 311 310 309 308 307 306 306 307 307 304 294 292 292 291 299 307 305 302 304
334 335 335 334 334 333 333 335 336 336 335 334 333 332 331 331 328 326 326 326 326 325 325 297 297 296 297 297 297 301 320 319 317 317 316 316 315 315 314 313 313 313 314 312 311 311 310 310 309 309 308 308 308 309 308 306 305 305 304 304 305 305 307
335 335 334 333 333 333 333 334 334 334 334 334 335 335 331 330 326 323 322 323 325 325 323 295 296 296 295 296 296 313 319 318 316 316 315 315 314 314 314 314 313 313 314 312 307 300 305 311 311 310 308 308 308 309 309 308 300 301 311 310 309 311 313
335 333 332 331 331 331 332 334 334 334 332 332 332 332 331 328 326 323 322 323 325 325 320 299 295 295 295 294 300 314 318 316 316 315 315 315 314 314 314 314 315 312 311 312 303 296 298 303 310 308 307 307 307 307 306 308 297 293 293 293 293 292 291
333 332 331 330 330 331 332 333 333 331 331 331 331 331 329 328 327 326 324 325 325 324 320 302 294 295 295 294 304 315 317 315 315 315 315 315 315 314 314 314 313 311 311 312 295 295 295 303 308 308 308 306 305 305 305 306 308 307 294 292 292 292 293
333 332 331 330 330 330 330 330 331 330 331 332 330 330 327 325 323 323 324 326 316 321 319 303 294 294 294 295 305 317 316 315 315 314 314 313 314 314 314 313 310 310 312 308 292 294 293 302 308 308 308 307 304 304 304 306 308 306 307 307 308 308 306
332 332 331 331 331 330 330 329 329 329 330 329 327 327 325 324 322 323 323 322 320 322 320 309 300 294 295 295 299 316 317 314 314 314 314 312 312 313 313 312 308 297 293 292 292 292 293 295 307 309 309 307 305 303 306 307 307 306 307 306 308 310 310
332 333 333 331 330 328 329 329 327 327 328 328 328 325 322 323 323 322 322 322 321 323 322 312 303 293 294 295 297 302 317 316 316 314 312 311 311 311 312 310 311 298 292 292 292 291 292 292 297 309 309 306 306 307 305 306 306 305 306 306 306 306 308
333 332 331 330 329 328 329 329 327 327 328 327 325 323 321 321 321 319 320 321 322 324 318 309 308 295 294 295 296 296 314 316 315 314 312 312 311 312 311 311 312 302 292 291 291 291 291 292 291 305 308 298 293 295 306 306 306 305 303 303 304 304 304
331 332 331 330 329 328 328 327 327 327 326 325 323 322 321 321 320 317 317 319 321 324 321 313 302 302 294 294 295 296 298 308 301 315 313 312 312 312 312 312 312 298 293 291 291 291 291 290 292 302 295 293 293 292 298 303 303 304 304 305 306 305 304
332 332 330 329 328 328 327 327 327 327 328 326 324 322 321 320 318 317 316 316 318 320 319 316 301 299 299 293 295 296 295 297 302 314 315 313 313 313 312 313 309 292 293 291 291 290 290 291 300 293 292 292 291 293 301 301 301 303 302 303 304 305 306
Wind_Speed
14 13 13 12 13 12 12 13 11 12 12 12 11 11 10 10 9 8 8 8 8 8 8 8 8 8 9 9 9 10 9 8 9 8 8 8 9 8 8 7 4 3 3 5 7 5 6 4 7 7 7 8 8 8 8 7 8 7 6 5 5 5 5
13 12 12 12 12 12 13 12 12 12 12 12 12 11 10 10 9 9 9 8 9 8 8 7 8 9 11 10 9 9 8 8 8 8 7 8 8 8 8 7 5 4 5 6 6 6 6 6 5 9 8 8 7 8 7 7 7 7 7 7 6 5 5
13 13 13 13 13 13 14 14 13 12 11 11 11 11 10 11 10 9 9 9 9 8 8 8 8 10 10 10 9 9 8 8 6 8 8 7 7 8 7 6 6 6 6 6 6 7 7 7 7 5 9 11 10 9 9 8 8 7 7 7 7 6 5
17 15 13 14 14 14 14 14 13 12 11 11 10 10 11 11 10 10 9 9 8 8 8 9 9 10 8 8 8 9 8 9 7 8 8 8 8 7 7 7 7 7 8 8 6 6 7 6 6 6 6 9 9 9 10 10 8 9 8 7 7 6 5
17 15 16 16 16 15 14 14 12 11 11 10 10 10 10 11 10 9 9 9 8 8 9 8 6 6 7 8 7 7 7 9 8 8 8 9 10 8 8 7 8 9 9 8 7 6 6 6 5 6 5 7 8 7 8 9 9 8 8 8 7 6 5
17 17 16 15 15 14 12 13 12 12 11 12 11 11 11 12 11 9 9 9 9 8 8 7 6 6 5 6 6 7 9 10 9 9 8 8 8 9 9 8 9 9 9 8 8 7 6 5 5 6 6 5 5 5 6 8 8 8 7 8 7 6 6
15 16 15 15 14 14 12 13 13 13 12 12 12 12 11 12 11 10 10 10 9 9 10 8 6 7 7 6 7 6 8 8 9 10 9 10 9 10 10 9 9 9 9 8 7 7 7 6 6 6 5 3 5 6 5 7 8 7 8 7 7 6 6
15 15 15 14 14 14 13 12 12 12 12 12 11 11 11 11 12 10 10 10 10 10 10 10 9 9 8 7 6 6 7 8 9 8 8 9 8 10 11 10 8 8 8 8 7 8 7 6 6 6 6 6 5 6 6 6 7 9 6 7 7 7 6
15 14 14 13 14 15 14 12 13 13 12 12 11 12 12 12 13 11 11 10 10 10 10 11 11 10 7 8 7 8 10 6 7 8 6 7 7 8 9 9 9 9 8 9 8 7 7 6 5 6 6 6 6 6 7 7 7 7 9 7 6 7 6
18 17 15 15 16 15 13 12 13 13 13 11 10 10 11 12 11 11 10 10 10 10 10 10 11 9 8 7 7 8 9 6 6 7 6 6 7 7 7 8 8 8 8 8 7 6 5 5 5 5 6 7 7 7 6 7 8 6 8 8 6 7 6
17 17 16 16 15 15 12 12 13 13 13 10 9 9 12 13 11 12 10 10 10 11 10 8 8 8 7 6 8 8 7 5 6 5 6 7 7 6 7 7 7 7 5 5 6 5 5 5 6 6 6 6 7 8 7 6 5 7 6 8 6 5 7
16 15 16 16 15 16 14 13 12 12 12 11 11 12 13 13 11 11 10 11 11 11 10 10 10 8 7 7 7 6 6 6 6 6 6 6 6 6 6 6 6 6 4 4 4 4 5 4 5 6 6 6 7 7 7 6 7 4 5 6 7 5 6
18 17 16 15 15 16 15 15 14 13 12 12 12 14 13 13 12 11 11 11 11 11 10 8 8 9 10 10 8 8 7 8 8 8 7 6 5 6 6 7 6 6 4 4 5 5 4 4 4 5 5 5 6 6 5 7 7 2 4 4 5 5 6
20 17 17 16 15 14 14 13 13 12 12 13 13 14 14 13 12 12 12 11 11 10 11 11 10 9 10 9 9 9 8 9 9 7 7 7 6 6 6 7 7 6 5 5 4 4 4 5 5 5 5 5 5 5 6 6 7 4 4 2 4 5 6
18 17 17 15 15 16 15 14 13 13 13 13 14 14 14 12 12 13 13 13 12 11 11 11 11 9 10 9 9 6 7 8 8 8 7 7 7 6 6 7 7 7 6 6 4 5 5 5 5 5 5 5 5 5 5 6 6 6 5 5 5 5 5
17 18 17 17 17 17 16 15 14 14 14 13 14 14 14 13 13 13 13 13 13 11 12 11 10 10 9 10 9 8 7 8 8 8 8 7 8 7 7 7 7 7 5 5 5 4 3 4 4 4 4 4 4 4 4 6 5 6 6 5 5 6 5
20 19 18 16 17 17 15 15 13 14 15 14 15 12 13 13 13 13 13 13 13 12 12 11 10 10 10 10 9 9 8 8 8 8 8 8 8 8 8 8 7 7 6 6 6 5 5 4 4 4 5 4 4 3 3 5 6 5 4 3 6 7 6
21 21 18 15 16 16 16 14 12 15 15 15 14 12 12 12 13 13 12 14 14 12 12 12 11 10 9 8 9 8 9 9 8 8 8 8 8 8 8 7 7 7 7 7 6 6 5 6 5 5 4 4 4 4 3 4 4 3 1 5 5 5 4
22 21 18 16 18 18 16 16 16 15 16 16 14 13 13 12 12 14 14 14 13 13 12 11 11 11 10 9 8 8 8 8 8 8 8 8 8 8 8 8 8 8 8 8 7 6 6 7 5 5 4 3 3 3 2 2 1 2 5 6 4 5 4
20 21 17 16 16 17 17 17 17 17 16 15 14 13 13 13 12 13 14 14 14 13 12 12 11 11 10 10 9 9 9 9 8 7 8 8 8 8 8 8 8 9 9 8 7 7 7 6 4 4 3 2 1 3 3 2 3 4 5 4 3 4 4
20 18 16 15 16 18 18 17 17 16 15 15 14 14 14 14 12 13 13 15 14 12 12 11 11 11 10 10 10 10 10 9 9 8 8 9 9 9 8 8 8 8 8 8 8 7 7 6 5 4 3 2 2 2 2 2 4 4 4 4 4 4 3
16 16 17 17 17 17 18 17 17 16 15 13 12 13 13 14 13 13 14 14 13 11 11 10 10 10 10 11 10 10 10 10 9 9 9 9 8 9 9 8 8 8 8 7 7 5 4 2 4 5 4 3 3 2 1 3 3 4 4 4 4 3 3
16 16 17 17 17 16 17 17 17 17 17 14 13 13 13 13 13 14 14 13 12 10 9 9 9 13 11 10 11 9 9 10 10 9 9 9 9 9 9 8 7 8 8 7 7 6 7 4 8 6 4 4 3 2 3 4 4 4 3 4 4 4 4
16 19 19 17 15 17 18 17 17 17 16 15 14 13 13 13 13 13 13 13 12 9 9 8 15 14 12 12 11 10 10 10 10 10 10 10 10 10 9 9 8 8 8 7 7 7 7 8 10 10 11 7 5 3 2 4 4 3 4 4 3 4 4
19 18 18 20 18 19 16 17 17 17 16 15 13 12 13 13 13 12 11 12 11 10 9 13 17 15 13 13 10 10 9 9 9 10 10 10 9 9 9 8 7 7 8 9 8 8 8 9 9 9 8 5 2 4 4 3 3 4 4 4 3 3 3
21 20 21 19 18 17 17 17 18 18 18 15 13 13 13 13 12 12 12 12 11 10 8 15 17 16 14 14 11 10 9 9 10 10 10 10 9 9 9 8 8 7 7 9 8 8 8 8 7 7 7 6 4 3 3 4 5 5 4 4 3 3 4
20 21 19 17 16 17 17 18 17 16 16 14 13 13 13 13 12 12 12 12 11 10 9 14 17 17 15 14 12 10 8 9 9 9 10 9 8 9 9 9 8 8 8 9 8 8 9 9 8 7 6 6 6 7 5 5 5 5 5 4 2 4 4
21 18 17 18 18 18 18 16 16 16 16 13 13 12 13 13 11 11 11 10 9 10 7 18 17 17 15 14 13 10 7 8 8 8 9 9 9 9 9 8 8 8 9 9 8 9 9 9 9 7 7 7 6 6 6 6 7 6 6 6 4 4 3
18 16 18 18 19 19 18 17 17 14 12 12 13 12 10 11 12 12 11 10 9 10 8 19 17 17 15 14 14 10 8 9 8 8 9 9 9 8 9 9 8 8 8 9 10 10 8 8 8 7 7 6 6 5 5 4 5 3 0 2 2 2 2
18 19 19 19 19 18 17 15 15 11 13 14 14 15 13 11 11 12 12 11 11 10 9 15 18 17 16 16 13 11 9 9 8 9 9 9 9 9 8 9 9 8 9 8 13 13 8 6 7 7 6 6 6 6 6 6 6 4 3 2 3 4 5
17 18 18 17 17 17 16 14 14 13 15 15 15 15 12 11 11 12 14 13 11 10 9 13 18 17 17 17 15 12 9 10 10 9 9 9 8 8 9 8 9 9 9 9 15 13 11 9 7 6 6 7 7 7 7 6 5 5 5 4 4 4 5
18 18 17 16 14 14 14 13 12 13 13 13 14 13 11 10 9 9 10 11 12 11 9 12 17 18 18 19 15 11 10 10 10 10 9 9 9 8 9 8 8 7 6 12 16 14 13 11 8 7 7 7 8 8 7 8 6 6 6 6 7 7 7
17 18 17 15 14 16 13 12 15 14 13 13 12 10 10 9 11 10 10 9 9 11 10 10 15 18 19 20 19 12 10 10 11 11 10 10 9 9 9 9 10 4 13 16 15 15 14 13 9 7 7 7 8 8 7 7 7 6 6 7 7 6 6
16 16 18 17 14 12 15 14 14 12 11 10 10 9 10 9 9 9 10 10 11 11 8 12 15 20 20 20 21 15 10 10 10 10 10 9 10 10 9 9 10 11 13 15 16 16 15 14 9 7 6 7 6 2 4 6 7 3 6 6 6 6 5
13 14 16 15 14 13 14 13 10 10 11 12 14 11 10 8 9 8 8 9 11 11 10 15 14 18 19 20 21 19 9 10 9 10 10 9 10 9 10 9 9 14 15 14 14 14 14 13 12 7 6 2 10 8 5 4 4 6 6 6 7 7 6
13 9 11 12 15 17 15 13 13 12 14 12 13 11 12 10 8 8 7 8 8 9 9 11 16 16 19 20 20 19 13 7 8 9 9 10 9 9 9 9 8 16 16 14 14 14 14 13 8 8 3 6 7 5 3 6 5 5 5 6 6 6 6
13 14 13 12 13 17 15 15 12 12 13 14 14 13 9 9 9 10 9 8 8 8 8 9 13 18 18 19 20 18 14 5 11 8 9 8 8 8 9 8 9 17 16 15 14 14 13 11 9 12 9 7 8 7 6 7 6 6 7 7 7 7 7
Wind_Direction
192 189 190 190 192 192 190 187 187 190 196 199 197 197 194 193 189 188 189 195 192 197 197 196 189 191 204 206 208 208 211 203 202 214 206 194 194 203 208 215 210 234 245 234 270 264 285 194 188 203 202 204 202 209 216 213 205 194 191 215 199 193 198
190 185 184 189 189 190 190 185 189 189 195 200 197 196 193 193 190 188 188 194 196 196 201 199 194 200 206 204 198 206 210 207 215 222 221 214 208 221 186 209 211 213 226 238 238 245 251 264 208 179 191 187 209 207 215 221 215 197 199 203 224 208 190
188 188 186 185 190 186 190 186 191 191 191 195 198 198 194 193 190 185 188 195 196 196 202 202 202 203 202 203 197 199 199 208 208 220 225 225 220 229 200 191 193 209 226 226 222 231 244 250 280 191 186 182 197 204 201 207 217 214 202 198 212 212 204
191 186 182 186 187 187 190 186 189 191 191 190 197 197 198 196 185 184 188 190 193 196 201 203 206 204 193 203 200 197 200 200 203 214 222 227 232 226 202 201 205 211 230 233 229 222 236 236 228 252 202 196 206 198 195 200 210 212 209 192 209 218 200
190 189 186 188 187 187 189 185 185 188 189 189 195 198 199 197 186 185 186 188 189 193 198 206 193 188 193 204 195 189 203 211 217 219 225 230 230 232 219 214 223 228 230 238 240 235 229 236 235 245 232 204 207 210 177 189 205 208 206 198 208 210 202
194 192 188 187 188 186 187 186 185 190 186 190 192 197 199 198 194 183 184 187 191 190 190 192 173 181 203 194 193 201 214 216 219 221 223 222 221 231 234 227 232 230 235 233 242 251 235 246 246 244 243 206 214 202 148 182 199 207 202 201 211 203 198
193 194 193 190 183 186 189 189 190 193 189 191 189 197 196 197 197 192 186 187 190 193 189 183 157 203 208 211 197 200 217 220 224 223 227 233 233 233 237 236 223 228 233 237 240 240 241 233 234 237 245 206 215 227 174 197 203 197 194 204 206 203 200
190 192 195 196 191 189 190 187 192 196 192 192 191 196 192 193 198 193 187 184 186 188 189 191 182 199 203 209 194 200 227 228 224 220 225 228 230 229 229 231 230 227 233 236 237 236 236 231 236 231 234 210 207 232 213 210 201 206 195 200 197 200 202
187 189 195 195 197 192 187 188 192 197 193 192 191 195 191 195 197 188 185 187 183 184 190 189 187 192 185 199 207 208 218 210 213 209 210 209 219 224 224 224 230 229 228 234 234 233 242 240 227 237 230 227 230 215 210 226 218 209 208 190 189 205 194
187 191 193 194 198 192 182 188 195 199 197 193 190 189 194 194 192 186 183 184 180 183 189 179 184 184 177 188 204 209 212 193 206 209 211 211 209 214 218 220 226 231 234 232 235 238 232 240 242 237 231 229 233 251 218 218 219 225 194 189 198 190 196
187 191 194 196 195 189 178 187 195 198 197 185 180 182 195 193 183 179 181 176 178 189 183 172 177 175 167 194 209 205 196 184 201 205 207 209 211 208 215 214 218 230 229 213 225 225 229 232 234 236 235 238 242 246 251 248 234 200 200 187 217 193 182
183 188 194 193 190 187 182 190 195 193 186 176 186 191 195 188 178 176 183 181 184 185 174 171 174 175 181 207 202 203 190 189 204 211 205 207 203 205 206 209 211 224 194 213 210 207 216 219 223 229 234 241 241 248 259 260 264 168 196 184 211 214 174
186 189 194 191 187 186 184 190 191 187 184 181 187 193 194 185 176 176 184 188 180 171 163 162 175 174 181 200 192 199 192 197 203 205 202 200 201 205 201 205 205 206 185 193 198 198 200 209 224 233 233 233 239 242 246 257 256 214 177 200 198 198 182
186 190 193 193 187 182 185 187 186 187 184 186 191 192 193 183 176 176 185 190 183 169 168 175 183 179 183 186 190 198 186 195 201 201 198 191 197 203 198 203 191 186 174 199 187 189 204 200 206 229 235 231 233 210 228 236 241 225 144 173 188 200 191
186 190 191 188 190 185 189 188 185 189 187 187 193 192 188 181 176 180 185 190 187 178 176 176 181 182 187 185 186 185 188 194 199 198 192 194 189 190 188 198 181 172 179 192 183 204 195 197 203 204 201 223 219 210 217 234 228 243 189 174 202 201 188
184 186 188 191 193 191 186 187 188 188 187 190 193 192 187 182 177 178 186 188 185 179 180 180 181 184 189 185 182 181 188 193 194 192 191 193 186 181 183 186 175 164 166 178 184 206 171 196 207 191 184 202 215 212 212 227 240 236 218 193 197 206 199
185 185 189 191 191 191 183 186 184 187 190 190 191 185 182 176 173 175 177 189 189 179 183 181 180 187 189 189 188 186 186 189 191 192 194 188 185 181 184 182 175 167 170 178 186 181 190 184 193 181 192 189 197 194 206 215 226 257 232 182 204 221 196
187 188 189 186 188 189 182 179 182 190 192 191 184 173 177 175 175 178 179 188 190 182 182 180 181 185 187 190 191 189 188 187 189 191 189 187 178 186 181 184 173 173 178 184 181 190 183 186 194 185 193 186 190 173 189 207 217 217 200 225 207 214 196
189 187 183 184 187 189 182 181 182 191 193 190 179 175 172 175 179 182 183 185 186 184 181 181 182 184 183 180 186 186 187 185 185 186 180 181 180 186 184 184 178 180 183 187 183 189 182 189 191 189 188 196 172 155 173 154 156 200 215 233 214 183 192
191 188 182 180 187 187 183 183 185 191 192 184 174 177 176 177 178 184 185 188 191 183 180 179 182 182 181 180 181 180 181 181 180 179 177 181 181 181 186 185 182 185 186 187 184 184 185 185 185 188 164 171 137 133 151 181 224 220 224 232 202 212 188
190 183 178 179 185 188 183 183 186 190 186 180 178 180 178 178 177 186 188 193 189 180 176 177 181 181 180 180 179 180 179 177 177 174 177 178 178 181 185 184 185 184 187 186 187 186 184 181 172 175 154 153 135 154 194 222 219 213 212 218 230 196 205
185 179 175 181 188 189 185 182 185 188 187 178 178 180 177 177 176 184 188 187 179 173 175 178 181 178 179 178 179 180 179 177 175 173 172 176 177 183 183 182 187 187 187 177 173 185 164 109 172 169 142 142 148 166 265 252 217 222 211 214 209 207 206
181 177 177 180 187 187 184 181 184 186 189 177 173 177 175 178 176 181 180 178 176 170 172 184 155 166 174 176 178 178 175 177 176 174 176 175 183 187 185 181 182 169 154 136 132 114 100 92 33 27 132 140 137 176 225 238 232 220 223 214 218 214 220
180 180 180 181 182 185 186 182 181 183 186 179 171 172 174 175 178 181 179 175 169 173 174 162 140 159 165 175 178 176 175 176 177 176 178 179 182 183 181 178 170 156 156 152 138 116 113 91 75 70 68 59 4 338 239 216 222 238 235 230 221 218 238
180 179 179 182 181 187 186 181 180 181 183 177 168 168 173 175 177 178 177 177 173 175 179 134 155 157 165 172 187 176 176 174 178 178 181 181 179 179 176 174 174 168 187 182 174 149 113 96 102 97 101 101 76 16 351 322 297 222 223 241 228 222 239
181 179 181 182 179 183 184 183 180 180 182 174 161 167 173 172 174 175 177 178 178 174 173 145 158 163 166 175 184 191 177 178 179 179 179 181 179 176 174 173 172 170 168 163 171 164 159 138 108 108 118 144 144 187 255 274 284 310 314 246 240 249 247
180 180 180 177 176 180 182 185 183 179 177 171 164 167 170 171 168 171 176 177 177 175 169 153 161 167 170 174 179 202 180 177 181 179 177 178 177 177 177 177 174 173 164 171 182 170 174 168 168 168 181 201 207 174 181 194 243 264 267 282 251 238 248
182 178 175 174 174 177 180 186 181 177 175 165 165 168 170 173 168 166 173 176 176 175 157 154 164 169 171 173 176 207 182 176 179 176 177 177 180 179 179 183 180 175 170 173 182 176 174 176 177 184 194 200 215 197 191 195 205 211 212 226 239 258 265
177 173 173 173 174 178 179 184 183 175 169 177 186 185 178 173 168 171 174 176 177 180 148 159 163 168 168 172 172 197 185 178 179 176 177 178 184 182 183 183 182 175 168 180 149 167 192 182 181 186 193 203 211 202 197 125 99 68 49 205 241 290 349
174 171 170 172 175 176 177 182 185 174 172 178 183 188 186 173 172 171 173 179 179 182 148 165 163 166 168 167 174 195 183 183 176 179 177 178 185 181 184 184 180 179 175 179 145 165 176 203 190 196 206 207 205 201 195 155 143 160 193 224 267 302 316
167 168 167 172 174 173 173 176 177 175 178 179 185 189 178 166 170 174 174 176 177 173 152 163 166 165 166 171 184 191 184 183 175 177 176 177 183 180 180 176 189 182 182 163 151 163 167 185 203 201 209 210 201 203 200 183 174 190 182 212 225 239 235
169 167 169 170 166 164 171 174 173 175 180 182 185 184 170 161 165 170 174 177 166 172 150 161 169 165 170 177 190 196 187 182 177 177 175 175 182 184 171 169 198 208 189 138 154 160 169 188 205 209 212 211 211 209 204 188 189 196 204 220 220 203 213
165 167 167 169 168 168 164 165 172 173 178 180 176 170 157 161 168 173 167 170 169 184 155 154 172 171 175 182 197 203 187 183 179 175 178 173 176 186 175 178 180 133 113 144 159 165 174 194 207 210 208 215 216 213 192 190 197 210 214 226 238 221 225
160 162 170 169 163 160 168 169 171 169 169 170 171 163 158 160 169 166 164 171 174 189 163 156 172 178 179 184 197 219 189 188 177 175 177 173 182 181 180 182 189 151 151 154 167 171 176 191 215 224 210 220 223 176 160 192 176 198 235 249 249 244 232
148 160 163 156 157 162 172 167 159 162 175 182 184 166 152 163 166 152 157 169 173 183 162 163 166 182 181 186 196 216 219 182 184 174 178 180 182 183 186 181 185 162 167 162 167 173 179 188 203 228 221 199 82 118 192 208 190 202 219 219 228 227 228
159 149 156 154 161 169 164 161 167 166 176 173 171 165 173 177 162 147 154 169 171 180 166 166 165 173 186 188 196 207 234 208 172 182 182 182 188 178 185 183 157 153 169 166 170 175 181 186 184 219 228 117 131 125 225 223 220 218 216 225 235 238 237
158 160 154 155 155 163 166 168 163 174 182 178 175 175 170 172 162 160 163 165 169 169 163 166 176 178 177 191 193 204 217 237 161 190 181 182 187 175 175 182 143 154 166 173 173 177 181 173 198 207 206 164 145 170 221 226 221 221 228 236 235 241 243